When you browse on this site, cookies collect data to enhance your experience and personalize the content and advertising you see.
Visit our Privacy Policy to learn more. By continuing to use the site, you agree to this use of cookies and data.

Hourly Weather Barnsley

Today, 11 August, Tuesday

Time Temperature Precipitation Wind Pressure Humidity
00:00 +18°C° 0 mm 2 mps 752 mmHg 94%
01:00 +18°C° 0.3 mm 2 mps 752 mmHg 94%
02:00 +18°C° 0.3 mm 3 mps 751 mmHg 95%
03:00 +18°C° 0.3 mm 3 mps 751 mmHg 95%
04:00 +18°C° 0.1 mm 3 mps 751 mmHg 94%
05:00 +18°C° 0.1 mm 2 mps 751 mmHg 94%
06:00 +18°C° 0 mm 3 mps 752 mmHg 91%
07:00 +19°C° 0 mm 3 mps 752 mmHg 86%
08:00 +21°C° 0 mm 2 mps 752 mmHg 82%
09:00 +23°C° 0 mm 2 mps 752 mmHg 78%
10:00 +25°C° 0 mm 2 mps 752 mmHg 71%
11:00 +27°C° 0 mm 3 mps 752 mmHg 64%
12:00 +29°C° 0 mm 3 mps 752 mmHg 58%
13:00 +30°C° 0 mm 3 mps 752 mmHg 54%
14:00 +30°C° 0 mm 3 mps 751 mmHg 50%
15:00 +31°C° 0 mm 3 mps 751 mmHg 46%
16:00 +30°C° 0.3 mm 3 mps 751 mmHg 51%
17:00 +29°C° 0.3 mm 3 mps 751 mmHg 56%
18:00 +28°C° 0.3 mm 3 mps 751 mmHg 60%
19:00 +26°C° 0.5 mm 2 mps 751 mmHg 66%
20:00 +24°C° 0.5 mm 2 mps 751 mmHg 72%
21:00 +23°C° 0.5 mm 2 mps 751 mmHg 78%
22:00 +22°C° 0.1 mm 1 mps 751 mmHg 80%
23:00 +21°C° 0.1 mm 1 mps 751 mmHg 83%

Tomorrow, 12 August, Wednesday

Time Temperature Precipitation Wind Pressure Humidity
00:00 +21°C° 0.1 mm 1 mps 751 mmHg 85%
01:00 +20°C° 0 mm 1 mps 750 mmHg 86%
02:00 +20°C° 0 mm 1 mps 750 mmHg 87%
03:00 +20°C° 0 mm 1 mps 750 mmHg 88%
04:00 +20°C° 0.1 mm 1 mps 750 mmHg 88%
05:00 +20°C° 0.1 mm 1 mps 750 mmHg 87%
06:00 +20°C° 0.1 mm 1 mps 750 mmHg 87%
07:00 +22°C° 0.2 mm 1 mps 750 mmHg 81%
08:00 +23°C° 0.2 mm 1 mps 750 mmHg 76%
09:00 +25°C° 0.2 mm 1 mps 750 mmHg 70%
10:00 +26°C° 0.1 mm 1 mps 750 mmHg 65%
11:00 +28°C° 0.1 mm 1 mps 750 mmHg 59%
12:00 +30°C° 0.1 mm 1 mps 750 mmHg 53%
13:00 +30°C° 0.1 mm 2 mps 750 mmHg 51%
14:00 +31°C° 0.1 mm 2 mps 750 mmHg 48%
15:00 +32°C° 0.1 mm 2 mps 750 mmHg 46%
16:00 +31°C° 0 mm 2 mps 749 mmHg 49%
17:00 +30°C° 0 mm 3 mps 749 mmHg 52%
18:00 +30°C° 0 mm 3 mps 749 mmHg 55%
19:00 +28°C° 0.3 mm 3 mps 749 mmHg 62%
20:00 +26°C° 0.3 mm 2 mps 749 mmHg 68%
21:00 +24°C° 0.3 mm 2 mps 750 mmHg 75%
22:00 +23°C° 0 mm 2 mps 750 mmHg 78%
23:00 +21°C° 0 mm 2 mps 750 mmHg 80%

Day after tomorrow, 13 August, Thursday

Time Temperature Precipitation Wind Pressure Humidity
00:00 +21°C° 0 mm 2 mps 750 mmHg 83%
01:00 +20°C° 0 mm 2 mps 749 mmHg 85%
02:00 +20°C° 0 mm 2 mps 749 mmHg 87%
03:00 +19°C° 0 mm 2 mps 749 mmHg 89%
04:00 +19°C° 0 mm 2 mps 749 mmHg 89%
05:00 +19°C° 0 mm 3 mps 749 mmHg 90%
06:00 +19°C° 0 mm 3 mps 749 mmHg 90%
07:00 +20°C° 0 mm 3 mps 749 mmHg 86%
08:00 +21°C° 0 mm 3 mps 749 mmHg 82%
09:00 +22°C° 0 mm 4 mps 749 mmHg 79%
10:00 +23°C° 0.1 mm 4 mps 749 mmHg 75%
11:00 +25°C° 0.1 mm 4 mps 749 mmHg 71%
12:00 +27°C° 0.1 mm 4 mps 749 mmHg 68%
13:00 +27°C° 0 mm 4 mps 749 mmHg 67%
14:00 +27°C° 0 mm 4 mps 749 mmHg 67%
15:00 +27°C° 0 mm 5 mps 749 mmHg 67%
16:00 +26°C° 0 mm 5 mps 749 mmHg 69%
17:00 +25°C° 0 mm 5 mps 749 mmHg 71%
18:00 +23°C° 0 mm 5 mps 749 mmHg 73%
19:00 +22°C° 0 mm 5 mps 749 mmHg 76%
20:00 +21°C° 0 mm 4 mps 749 mmHg 80%
21:00 +19°C° 0 mm 4 mps 749 mmHg 84%
22:00 +19°C° 0.2 mm 4 mps 749 mmHg 85%
23:00 +19°C° 0.2 mm 4 mps 749 mmHg 86%

14 August, Friday

Time Temperature Precipitation Wind Pressure Humidity
00:00 +18°C° 0.2 mm 4 mps 749 mmHg 87%
01:00 +18°C° 0.1 mm 4 mps 749 mmHg 88%
02:00 +18°C° 0.1 mm 4 mps 749 mmHg 88%
03:00 +18°C° 0.1 mm 4 mps 749 mmHg 88%
04:00 +18°C° 0 mm 4 mps 749 mmHg 88%
05:00 +18°C° 0 mm 4 mps 749 mmHg 87%
06:00 +18°C° 0 mm 4 mps 749 mmHg 87%
07:00 +18°C° 0.1 mm 4 mps 749 mmHg 84%
08:00 +19°C° 0.1 mm 4 mps 749 mmHg 81%
09:00 +20°C° 0.1 mm 5 mps 750 mmHg 79%
10:00 +21°C° 0.1 mm 4 mps 750 mmHg 76%
11:00 +22°C° 0.1 mm 4 mps 750 mmHg 73%
12:00 +23°C° 0.1 mm 4 mps 750 mmHg 70%
13:00 +23°C° 0.2 mm 4 mps 750 mmHg 71%
14:00 +23°C° 0.2 mm 4 mps 750 mmHg 72%
15:00 +23°C° 0.2 mm 4 mps 750 mmHg 72%
16:00 +22°C° 0 mm 4 mps 750 mmHg 74%
17:00 +22°C° 0 mm 4 mps 750 mmHg 75%
18:00 +21°C° 0 mm 4 mps 750 mmHg 77%
19:00 +20°C° 0 mm 4 mps 751 mmHg 79%
20:00 +19°C° 0 mm 3 mps 751 mmHg 81%
21:00 +18°C° 0 mm 3 mps 752 mmHg 83%
22:00 +18°C° 0 mm 3 mps 752 mmHg 84%
23:00 +18°C° 0 mm 3 mps 752 mmHg 84%

15 August, Saturday

Time Temperature Precipitation Wind Pressure Humidity
00:00 +17°C° 0 mm 3 mps 752 mmHg 85%
01:00 +17°C° 0.1 mm 3 mps 752 mmHg 86%
02:00 +17°C° 0.1 mm 3 mps 752 mmHg 87%
03:00 +17°C° 0.1 mm 3 mps 751 mmHg 87%
04:00 +17°C° 0.2 mm 3 mps 751 mmHg 87%
05:00 +16°C° 0.2 mm 3 mps 751 mmHg 87%
06:00 +16°C° 0.2 mm 3 mps 751 mmHg 87%
07:00 +18°C° 0.1 mm 3 mps 751 mmHg 82%
08:00 +19°C° 0.1 mm 3 mps 751 mmHg 76%
09:00 +20°C° 0.1 mm 3 mps 751 mmHg 71%
10:00 +21°C° 0 mm 3 mps 751 mmHg 68%
11:00 +22°C° 0 mm 4 mps 751 mmHg 64%
12:00 +23°C° 0 mm 4 mps 751 mmHg 60%
13:00 +23°C° 0 mm 4 mps 751 mmHg 63%
14:00 +23°C° 0 mm 4 mps 751 mmHg 66%
15:00 +23°C° 0 mm 4 mps 750 mmHg 69%
16:00 +22°C° 0 mm 3 mps 750 mmHg 74%
17:00 +21°C° 0 mm 3 mps 750 mmHg 78%
18:00 +21°C° 0 mm 3 mps 750 mmHg 82%
19:00 +20°C° 0.1 mm 3 mps 750 mmHg 85%
20:00 +20°C° 0.1 mm 2 mps 750 mmHg 88%
21:00 +19°C° 0.1 mm 2 mps 750 mmHg 91%
22:00 +19°C° 0.1 mm 2 mps 750 mmHg 92%
23:00 +19°C° 0.1 mm 2 mps 750 mmHg 93%

16 August, Sunday

Time Temperature Precipitation Wind Pressure Humidity
00:00 +19°C° 0.1 mm 2 mps 749 mmHg 94%
01:00 +19°C° 0 mm 2 mps 749 mmHg 94%
02:00 +19°C° 0 mm 2 mps 749 mmHg 94%
03:00 +19°C° 0 mm 2 mps 749 mmHg 95%
04:00 +19°C° 0 mm 2 mps 749 mmHg 94%
05:00 +20°C° 0 mm 1 mps 749 mmHg 94%
06:00 +20°C° 0 mm 1 mps 749 mmHg 93%
07:00 +20°C° 0 mm 1 mps 749 mmHg 90%
08:00 +21°C° 0 mm 1 mps 749 mmHg 87%
09:00 +22°C° 0 mm 1 mps 749 mmHg 84%
10:00 +23°C° 0 mm 1 mps 749 mmHg 78%
11:00 +24°C° 0 mm 2 mps 749 mmHg 72%
12:00 +26°C° 0 mm 2 mps 749 mmHg 65%
13:00 +26°C° 0.1 mm 2 mps 748 mmHg 61%
14:00 +27°C° 0.1 mm 3 mps 748 mmHg 58%
15:00 +27°C° 0.1 mm 3 mps 748 mmHg 54%
16:00 +26°C° 2.2 mm 3 mps 747 mmHg 59%
17:00 +25°C° 2.2 mm 3 mps 747 mmHg 65%
18:00 +24°C° 2.2 mm 3 mps 747 mmHg 70%
19:00 +22°C° 1.7 mm 3 mps 747 mmHg 73%
20:00 +21°C° 1.7 mm 2 mps 747 mmHg 77%
21:00 +21°C° 1.7 mm 2 mps 748 mmHg 80%
22:00 +20°C° 0.1 mm 2 mps 748 mmHg 82%
23:00 +20°C° 0.1 mm 3 mps 748 mmHg 84%
Show more